timestamp,wind_dir_avg,wind_spd_max_dir,wind_spd_avg,wind_spd_gust,battery_voltage,lat,long
2018-01-09 00:00:00+00:00,297.0,310.0,8.23,10.71,,47.59359,-54.27349
2018-01-09 00:10:00+00:00,308.0,306.0,8.2,9.82,,47.59359,-54.27349
2018-01-09 00:20:00+00:00,308.0,303.0,7.74,9.58,,47.59359,-54.27349
2018-01-09 00:30:00+00:00,304.0,303.0,8.38,9.92,,47.59359,-54.27349
2018-01-09 00:40:00+00:00,310.0,304.0,7.53,10.27,,47.59359,-54.27349
2018-01-09 00:50:00+00:00,305.0,320.0,8.22,10.44,,47.59359,-54.27349
2018-01-09 01:00:00+00:00,300.0,290.0,6.92,8.72,,47.59359,-54.27349
2018-01-09 01:10:00+00:00,297.0,300.0,7.41,9.04,,47.59359,-54.27349
2018-01-09 01:20:00+00:00,289.0,284.0,6.93,8.69,,47.59359,-54.27349
2018-01-09 01:30:00+00:00,304.0,306.0,7.7,9.11,,47.59359,-54.27349
2018-01-09 01:40:00+00:00,291.0,284.0,7.43,8.67,,47.59359,-54.27349
2018-01-09 01:50:00+00:00,308.0,307.0,7.76,9.49,,47.59359,-54.27349
2018-01-09 02:00:00+00:00,305.0,306.0,7.77,9.33,,47.59359,-54.27349
2018-01-09 02:10:00+00:00,305.0,312.0,7.66,10.01,,47.59359,-54.27349
2018-01-09 02:20:00+00:00,298.0,298.0,7.08,8.17,,47.59359,-54.27349
2018-01-09 02:30:00+00:00,304.0,302.0,6.55,8.95,,47.59359,-54.27349
2018-01-09 02:40:00+00:00,296.0,299.0,6.09,8.26,,47.59359,-54.27349
2018-01-09 02:50:00+00:00,299.0,294.0,6.51,7.8,,47.59359,-54.27349
2018-01-09 03:00:00+00:00,299.0,303.0,5.75,6.52,,47.59359,-54.27349
2018-01-09 03:10:00+00:00,284.0,288.0,5.33,7.08,,47.59359,-54.27349
2018-01-09 03:20:00+00:00,305.0,308.0,7.39,9.49,,47.59359,-54.27349
2018-01-09 03:30:00+00:00,292.0,297.0,7.26,8.26,,47.59359,-54.27349
2018-01-09 03:40:00+00:00,318.0,313.0,6.3,7.66,,47.59359,-54.27349
2018-01-09 03:50:00+00:00,298.0,309.0,7.21,8.27,,47.59359,-54.27349
2018-01-09 04:00:00+00:00,303.0,304.0,5.69,6.56,,47.59359,-54.27349
2018-01-09 04:10:00+00:00,284.0,282.0,6.21,7.29,,47.59359,-54.27349
2018-01-09 04:20:00+00:00,295.0,289.0,6.28,7.5,,47.59359,-54.27349
2018-01-09 04:30:00+00:00,297.0,299.0,6.08,7.19,,47.59359,-54.27349
2018-01-09 04:40:00+00:00,295.0,292.0,6.01,7.41,,47.59359,-54.27349
2018-01-09 04:50:00+00:00,306.0,318.0,5.96,6.96,,47.59359,-54.27349
2018-01-09 05:00:00+00:00,294.0,292.0,6.86,8.08,,47.59359,-54.27349
2018-01-09 05:10:00+00:00,274.0,263.0,6.54,8.2,,47.59359,-54.27349
2018-01-09 05:20:00+00:00,299.0,293.0,5.04,7.94,,47.59359,-54.27349
2018-01-09 05:30:00+00:00,285.0,286.0,4.15,5.58,,47.59359,-54.27349
2018-01-09 05:40:00+00:00,279.0,274.0,5.19,6.45,,47.59359,-54.27349
2018-01-09 05:50:00+00:00,287.0,286.0,4.68,5.44,,47.59359,-54.27349
2018-01-09 06:00:00+00:00,279.0,289.0,5.56,6.52,,47.59359,-54.27349
2018-01-09 06:10:00+00:00,284.0,281.0,5.46,6.56,,47.59359,-54.27349
2018-01-09 06:20:00+00:00,293.0,291.0,6.76,8.52,,47.59359,-54.27349
2018-01-09 06:30:00+00:00,293.0,302.0,5.99,6.82,,47.59359,-54.27349
2018-01-09 06:40:00+00:00,280.0,268.0,4.84,6.72,,47.59359,-54.27349
2018-01-09 06:50:00+00:00,274.0,281.0,5.21,6.4,,47.59359,-54.27349
2018-01-09 07:00:00+00:00,279.0,275.0,5.99,8.0,,47.59359,-54.27349
2018-01-09 07:10:00+00:00,248.0,255.0,5.61,6.54,,47.59359,-54.27349
2018-01-09 07:20:00+00:00,264.0,269.0,5.7,6.81,,47.59359,-54.27349
2018-01-09 07:30:00+00:00,262.0,267.0,4.71,5.97,,47.59359,-54.27349
2018-01-09 07:40:00+00:00,286.0,272.0,4.09,4.92,,47.59359,-54.27349
2018-01-09 07:50:00+00:00,274.0,281.0,4.6,6.1,,47.59359,-54.27349
2018-01-09 08:00:00+00:00,273.0,272.0,4.46,5.26,,47.59359,-54.27349
2018-01-09 08:10:00+00:00,279.0,287.0,4.42,5.09,,47.59359,-54.27349
2018-01-09 08:20:00+00:00,269.0,272.0,5.53,6.21,,47.59359,-54.27349
2018-01-09 08:30:00+00:00,275.0,280.0,4.8,5.44,,47.59359,-54.27349
2018-01-09 08:40:00+00:00,269.0,269.0,4.15,5.03,,47.59359,-54.27349
2018-01-09 08:50:00+00:00,270.0,273.0,5.53,6.29,,47.59359,-54.27349
2018-01-09 09:00:00+00:00,243.0,240.0,4.91,5.76,,47.59359,-54.27349
2018-01-09 09:10:00+00:00,248.0,242.0,4.92,5.69,,47.59359,-54.27349
2018-01-09 09:20:00+00:00,254.0,254.0,4.59,5.17,,47.59359,-54.27349
2018-01-09 09:30:00+00:00,273.0,282.0,4.25,4.79,,47.59359,-54.27349
2018-01-09 09:40:00+00:00,274.0,273.0,4.32,5.08,,47.59359,-54.27349
2018-01-09 09:50:00+00:00,264.0,271.0,4.41,5.75,,47.59359,-54.27349
2018-01-09 10:00:00+00:00,271.0,274.0,4.59,5.35,,47.59359,-54.27349
2018-01-09 10:10:00+00:00,263.0,265.0,4.3,4.85,,47.59359,-54.27349
2018-01-09 10:20:00+00:00,261.0,266.0,2.51,3.27,,47.59359,-54.27349
2018-01-09 10:30:00+00:00,250.0,248.0,2.44,3.35,,47.59359,-54.27349
2018-01-09 10:40:00+00:00,230.0,236.0,4.3,5.41,,47.59359,-54.27349
2018-01-09 10:50:00+00:00,247.0,248.0,3.88,4.54,,47.59359,-54.27349
2018-01-09 11:00:00+00:00,241.0,239.0,4.08,4.69,,47.59359,-54.27349
2018-01-09 11:10:00+00:00,215.0,208.0,3.65,4.32,,47.59359,-54.27349
2018-01-09 11:20:00+00:00,221.0,223.0,3.52,4.2,,47.59359,-54.27349
2018-01-09 11:30:00+00:00,230.0,234.0,3.38,4.29,,47.59359,-54.27349
2018-01-09 11:40:00+00:00,205.0,207.0,2.72,3.17,,47.59359,-54.27349
2018-01-09 11:50:00+00:00,149.0,158.0,2.44,2.9,,47.59359,-54.27349
2018-01-09 12:00:00+00:00,123.0,118.0,2.31,3.3,,47.59359,-54.27349
2018-01-09 12:10:00+00:00,129.0,136.0,2.6,3.57,,47.59359,-54.27349
2018-01-09 12:20:00+00:00,131.0,128.0,1.96,3.22,,47.59359,-54.27349
2018-01-09 12:30:00+00:00,123.0,118.0,2.02,3.64,,47.59359,-54.27349
2018-01-09 12:40:00+00:00,88.0,98.0,1.1,2.11,,47.59359,-54.27349
2018-01-09 12:50:00+00:00,185.0,184.0,4.63,5.56,,47.59359,-54.27349
2018-01-09 13:00:00+00:00,191.0,192.0,5.32,6.04,,47.59359,-54.27349
2018-01-09 13:10:00+00:00,183.0,179.0,5.74,6.25,,47.59359,-54.27349
2018-01-09 13:20:00+00:00,201.0,213.0,7.4,8.16,,47.59359,-54.27349
2018-01-09 13:30:00+00:00,203.0,209.0,7.51,9.51,,47.59359,-54.27349
2018-01-09 13:40:00+00:00,197.0,212.0,6.05,7.46,,47.59359,-54.27349
2018-01-09 13:50:00+00:00,198.0,211.0,6.61,8.34,,47.59359,-54.27349
2018-01-09 14:00:00+00:00,209.0,210.0,8.37,9.48,,47.59359,-54.27349
2018-01-09 14:10:00+00:00,194.0,199.0,7.68,8.24,,47.59359,-54.27349
2018-01-09 14:20:00+00:00,192.0,196.0,7.22,8.52,,47.59359,-54.27349
2018-01-09 14:30:00+00:00,189.0,202.0,7.27,8.22,,47.59359,-54.27349
2018-01-09 14:40:00+00:00,183.0,181.0,6.25,7.11,,47.59359,-54.27349
2018-01-09 14:50:00+00:00,192.0,207.0,5.97,7.08,,47.59359,-54.27349
2018-01-09 15:00:00+00:00,191.0,203.0,7.49,9.42,,47.59359,-54.27349
2018-01-09 15:10:00+00:00,181.0,179.0,6.4,7.15,,47.59359,-54.27349
2018-01-09 15:20:00+00:00,173.0,171.0,5.96,7.04,,47.59359,-54.27349
2018-01-09 15:30:00+00:00,176.0,176.0,7.51,8.54,,47.59359,-54.27349
2018-01-09 15:40:00+00:00,170.0,170.0,7.3,8.04,,47.59359,-54.27349
2018-01-09 15:50:00+00:00,172.0,175.0,6.68,7.42,,47.59359,-54.27349
2018-01-09 16:00:00+00:00,166.0,163.0,6.35,7.59,,47.59359,-54.27349
2018-01-09 16:10:00+00:00,172.0,175.0,6.12,7.01,,47.59359,-54.27349
2018-01-09 16:20:00+00:00,175.0,174.0,5.78,6.32,,47.59359,-54.27349
2018-01-09 16:30:00+00:00,179.0,180.0,6.01,6.8,,47.59359,-54.27349
2018-01-09 16:40:00+00:00,175.0,178.0,5.89,6.9,,47.59359,-54.27349
2018-01-09 16:50:00+00:00,177.0,175.0,5.4,6.02,,47.59359,-54.27349
2018-01-09 17:00:00+00:00,177.0,175.0,5.72,6.42,,47.59359,-54.27349
2018-01-09 17:10:00+00:00,176.0,177.0,3.99,4.82,,47.59359,-54.27349
2018-01-09 17:20:00+00:00,191.0,202.0,3.71,5.51,,47.59359,-54.27349
2018-01-09 17:30:00+00:00,221.0,228.0,2.77,3.93,,47.59359,-54.27349
2018-01-09 17:40:00+00:00,182.0,196.0,3.5,5.37,,47.59359,-54.27349
2018-01-09 18:10:00+00:00,189.0,192.0,8.7,11.4,,47.59359,-54.27349
2018-01-09 18:20:00+00:00,187.0,185.0,9.16,10.75,,47.59359,-54.27349
2018-01-09 18:30:00+00:00,202.0,206.0,10.55,12.69,,47.59359,-54.27349
2018-01-09 18:40:00+00:00,219.0,221.0,11.28,13.41,,47.59359,-54.27349
2018-01-09 18:50:00+00:00,227.0,220.0,11.64,13.42,,47.59359,-54.27349
2018-01-09 19:00:00+00:00,238.0,238.0,9.27,10.82,,47.59359,-54.27349
2018-01-09 19:10:00+00:00,238.0,239.0,9.77,10.87,,47.59359,-54.27349
2018-01-09 19:20:00+00:00,239.0,246.0,9.61,10.89,,47.59359,-54.27349
2018-01-09 19:30:00+00:00,242.0,248.0,9.75,11.48,,47.59359,-54.27349
2018-01-09 19:40:00+00:00,243.0,242.0,8.91,10.44,,47.59359,-54.27349
2018-01-09 19:50:00+00:00,250.0,250.0,10.79,12.26,,47.59359,-54.27349
2018-01-09 20:00:00+00:00,249.0,248.0,10.24,11.6,,47.59359,-54.27349
2018-01-09 20:10:00+00:00,250.0,251.0,9.87,10.98,,47.59359,-54.27349
2018-01-09 20:20:00+00:00,252.0,254.0,9.18,10.15,,47.59359,-54.27349
2018-01-09 20:30:00+00:00,261.0,262.0,9.93,11.08,,47.59359,-54.27349
2018-01-09 20:40:00+00:00,265.0,263.0,11.88,14.0,,47.59359,-54.27349
2018-01-09 20:50:00+00:00,270.0,269.0,10.93,11.86,,47.59359,-54.27349
2018-01-09 21:00:00+00:00,261.0,259.0,10.3,12.34,,47.59359,-54.27349
2018-01-09 21:10:00+00:00,260.0,262.0,9.92,11.14,,47.59359,-54.27349
2018-01-09 21:20:00+00:00,261.0,259.0,10.75,12.08,,47.59359,-54.27349
2018-01-09 21:30:00+00:00,263.0,263.0,9.9,11.69,,47.59359,-54.27349
2018-01-09 21:40:00+00:00,268.0,273.0,9.07,11.27,,47.59359,-54.27349
2018-01-09 21:50:00+00:00,269.0,271.0,11.14,12.28,,47.59359,-54.27349
2018-01-09 22:00:00+00:00,267.0,270.0,10.56,11.93,,47.59359,-54.27349
2018-01-09 22:10:00+00:00,267.0,271.0,11.49,13.04,,47.59359,-54.27349
2018-01-09 22:20:00+00:00,261.0,261.0,10.76,12.41,,47.59359,-54.27349
2018-01-09 22:30:00+00:00,265.0,263.0,11.53,13.19,,47.59359,-54.27349
2018-01-09 22:40:00+00:00,270.0,272.0,14.39,16.47,,47.59359,-54.27349
2018-01-09 22:50:00+00:00,263.0,266.0,13.28,15.02,,47.59359,-54.27349
2018-01-09 23:00:00+00:00,270.0,272.0,12.84,14.54,,47.59359,-54.27349
2018-01-09 23:10:00+00:00,275.0,276.0,8.66,9.85,,47.59359,-54.27349
2018-01-09 23:20:00+00:00,271.0,272.0,10.57,13.02,,47.59359,-54.27349
2018-01-09 23:30:00+00:00,268.0,264.0,11.1,12.29,,47.59359,-54.27349
2018-01-09 23:40:00+00:00,271.0,271.0,11.71,13.95,,47.59359,-54.27349
2018-01-09 23:50:00+00:00,275.0,270.0,10.74,12.93,,47.59359,-54.27349
